Le nostre stazioni meteo in Italia

Pubblicità
Il mio iltempo24.it
Reggio Calabria, Italia (16422): Temperatura & dewpoint: 03.04.2020 18:00:00 - 09.04.2020 18:00:00 (CEST)Reggio Calabria, Italia (16422): velocità del vento: 03.04.2020 18:00:00 - 09.04.2020 18:00:00 (CEST)Reggio Calabria, Italia (16422): direzione del vento: 03.04.2020 18:00:00 - 09.04.2020 18:00:00 (CEST)Reggio Calabria, Italia (16422): reduced air pressure: 03.04.2020 18:00:00 - 09.04.2020 18:00:00 (CEST)Reggio Calabria, Italia (16422): visibility: 03.04.2020 18:00:00 - 09.04.2020 18:00:00 (CEST)
Data & Tempo tt [°C] td [°C] ff [km/h] ff [kn] dd ppp [hPa] vv [km]
09.04.2020 18:00:00 - - - - - - -
09.04.2020 17:00:00 18,9 1,9 22 12 N 1020,9 10
09.04.2020 16:00:00 20,0 1,0 26 14 N - 10
09.04.2020 15:00:00 20,0 0,0 24 13 N - 10
09.04.2020 14:00:00 20,5 1,5 24 13 N 1021,5 10
09.04.2020 13:00:00 19,0 2,0 26 14 N - 10
09.04.2020 12:00:00 19,0 3,0 28 15 N - 10
09.04.2020 11:00:00 18,1 4,7 22 12 N 1022,6 10
09.04.2020 10:00:00 16,0 9,0 22 12 N - 10
09.04.2020 09:00:00 15,0 10,0 22 12 N - 10
09.04.2020 08:00:00 13,9 9,1 15 8 N 1022,2 10
09.04.2020 07:00:00 10,0 6,0 11 6 NE - 10
09.04.2020 06:00:00 10,0 4,0 16 9 NE - 10
09.04.2020 05:00:00 10,5 2,1 15 8 NE 1021,7 -
09.04.2020 04:00:00 - - - - - - -
09.04.2020 03:00:00 - - - - - - -
09.04.2020 02:00:00 10,1 -1,3 13 7 NE 1022,6 -
09.04.2020 01:00:00 - - - - - - -
09.04.2020 00:00:00 10,0 1,0 9 5 NE - 10
08.04.2020 23:00:00 10,5 2,9 11 6 NE 1023,4 10
08.04.2020 22:00:00 14,0 9,0 11 6 NNE - 10
08.04.2020 21:00:00 14,0 10,0 15 8 N - 10
08.04.2020 20:00:00 14,8 10,4 21 11 N 1022,4 10
08.04.2020 19:00:00 17,0 6,0 18 10 N - 10
08.04.2020 18:00:00 18,0 4,0 18 10 N - 10
08.04.2020 17:00:00 19,4 1,6 18 10 N 1022,3 10
08.04.2020 16:00:00 20,0 1,0 22 12 N - 10
08.04.2020 15:00:00 20,0 2,0 24 13 N - 10
08.04.2020 14:00:00 20,4 -0,6 21 11 N 1023,0 10
08.04.2020 13:00:00 19,0 5,0 24 13 N - 10
08.04.2020 12:00:00 18,0 1,0 21 11 NNO - 10
08.04.2020 11:00:00 17,8 6,9 21 11 N 1024,2 10
08.04.2020 10:00:00 17,0 7,0 16 9 N - 10
08.04.2020 09:00:00 15,0 3,0 11 6 N - 10
08.04.2020 08:00:00 13,2 2,6 9 5 NE 1024,5 10
08.04.2020 07:00:00 9,0 1,0 11 6 NE - 10
08.04.2020 06:00:00 10,0 0,0 5 3 NO - 10
08.04.2020 05:00:00 8,7 1,0 9 5 ENE 1024,7 -
08.04.2020 04:00:00 - - - - - - -
08.04.2020 03:00:00 - - - - - - -
08.04.2020 02:00:00 10,2 1,9 9 5 E 1025,5 -
08.04.2020 01:00:00 - - - - - - -
08.04.2020 00:00:00 10,0 6,0 9 5 ENE - 10
07.04.2020 23:00:00 10,7 7,0 9 5 NE 1026,0 10
07.04.2020 22:00:00 12,0 8,0 5 3 ENE - 10
07.04.2020 21:00:00 14,0 8,0 5 3 E - 10
07.04.2020 20:00:00 14,8 6,9 0 0 N 1025,4 10
07.04.2020 19:00:00 15,0 9,0 5 3 S - 10
07.04.2020 18:00:00 16,0 10,0 11 6 SSO - 10
07.04.2020 17:00:00 17,8 5,3 13 7 N 1024,6 10
07.04.2020 16:00:00 18,0 4,0 16 9 N - 10
07.04.2020 15:00:00 19,0 4,0 18 10 N - 10
07.04.2020 14:00:00 19,8 3,6 24 13 NNO 1024,3 10
07.04.2020 13:00:00 20,0 5,0 28 15 N - 10
07.04.2020 12:00:00 19,0 8,0 24 13 NNO - 10
07.04.2020 11:00:00 17,9 9,6 21 11 N 1024,5 10
07.04.2020 10:00:00 17,0 9,0 18 10 N - 10
07.04.2020 09:00:00 16,0 10,0 11 6 N - 10
07.04.2020 08:00:00 14,9 9,9 8 4 NE 1024,4 10
07.04.2020 07:00:00 12,0 9,0 8 4 NE - 10
07.04.2020 06:00:00 12,0 9,0 5 3 NNE - 10
07.04.2020 05:00:00 12,4 9,3 8 4 NE 1023,9 -
07.04.2020 04:00:00 - - - - - - -
07.04.2020 03:00:00 - - - - - - -
07.04.2020 02:00:00 12,6 9,8 5 3 ENE 1024,6 -
07.04.2020 01:00:00 - - - - - - -
07.04.2020 00:00:00 13,0 10,0 8 4 ENE - 10
06.04.2020 23:00:00 13,4 10,3 4 2 ENE 1024,3 10
06.04.2020 22:00:00 13,0 10,0 4 2 - - 10
06.04.2020 21:00:00 14,0 10,0 4 2 NE - 10
06.04.2020 20:00:00 14,4 9,4 2 1 N 1023,4 10
06.04.2020 19:00:00 15,0 9,0 4 2 O - 10
06.04.2020 18:00:00 15,0 9,0 4 2 SSO - 10
06.04.2020 17:00:00 15,5 9,5 4 2 S 1022,9 10
06.04.2020 16:00:00 15,0 9,0 4 2 - - 10
06.04.2020 15:00:00 16,0 9,0 4 2 - - 10
06.04.2020 14:00:00 15,2 9,4 9 5 ESE 1022,9 10
06.04.2020 13:00:00 15,0 10,0 9 5 E - 10
06.04.2020 12:00:00 15,0 10,0 11 6 SO - 10
06.04.2020 11:00:00 16,6 9,5 9 5 NNO 1021,9 10
06.04.2020 10:00:00 16,0 10,0 11 6 N - 10
06.04.2020 09:00:00 15,0 10,0 2 1 - - 10
06.04.2020 08:00:00 13,4 10,5 2 1 NNE 1020,2 10
06.04.2020 07:00:00 12,0 10,0 8 4 ENE - 10
06.04.2020 06:00:00 13,0 9,0 5 3 E - 10
06.04.2020 05:00:00 12,8 9,2 8 4 ENE 1018,6 -
06.04.2020 04:00:00 - - - - - - -
06.04.2020 03:00:00 - - - - - - -
06.04.2020 02:00:00 13,7 9,2 9 5 ENE 1018,4 -
06.04.2020 01:00:00 - - - - - - -
06.04.2020 00:00:00 15,0 8,0 13 7 NE - 10
05.04.2020 23:00:00 14,9 8,0 13 7 NNE 1018,3 10
05.04.2020 22:00:00 15,0 8,0 11 6 NNE - 10
05.04.2020 21:00:00 15,0 8,0 13 7 NNE - 10
05.04.2020 20:00:00 15,3 7,5 13 7 N 1017,0 10
05.04.2020 19:00:00 16,0 8,0 18 10 N - 10
05.04.2020 18:00:00 17,0 6,0 22 12 N - 10
05.04.2020 17:00:00 16,7 6,7 24 13 N 1015,5 10
05.04.2020 16:00:00 19,0 8,0 21 11 NO - 10
05.04.2020 15:00:00 17,0 6,0 22 12 N - 10
05.04.2020 14:00:00 18,7 7,0 24 13 N 1015,4 10
05.04.2020 13:00:00 19,0 7,0 28 15 N - 10
05.04.2020 12:00:00 18,0 6,0 26 14 N - 10
05.04.2020 11:00:00 17,7 6,7 28 15 N 1015,4 10
05.04.2020 10:00:00 17,0 8,0 24 13 NNO - 10
05.04.2020 09:00:00 16,0 9,0 21 11 NNO - 10
05.04.2020 08:00:00 14,5 8,1 11 6 N 1014,6 10
05.04.2020 07:00:00 13,0 7,0 16 9 N - 10
05.04.2020 06:00:00 13,0 7,0 13 7 N - 10
05.04.2020 05:00:00 12,4 7,1 13 7 N 1014,0 -
05.04.2020 04:00:00 - - - - - - -
05.04.2020 03:00:00 - - - - - - -
05.04.2020 02:00:00 14,1 9,2 13 7 NNO 1014,1 -
05.04.2020 01:00:00 - - - - - - -
05.04.2020 00:00:00 14,0 9,0 13 7 NNE - 10
04.04.2020 23:00:00 14,0 9,0 15 8 NNE 1014,8 10
04.04.2020 22:00:00 14,0 8,0 18 10 NNE - 10
04.04.2020 21:00:00 13,0 7,0 21 11 NNE - 10
04.04.2020 20:00:00 13,4 7,3 18 10 NNE 1013,9 10
04.04.2020 19:00:00 14,0 7,0 21 11 N - 10
04.04.2020 18:00:00 15,0 7,0 24 13 N - 10
04.04.2020 17:00:00 15,4 6,8 22 12 NNO 1012,6 10
04.04.2020 16:00:00 15,0 7,0 24 13 N - 10
04.04.2020 15:00:00 17,0 7,0 29 16 N - 10
04.04.2020 14:00:00 17,2 8,4 28 15 N 1011,8 10
04.04.2020 13:00:00 17,0 6,0 29 16 N - 10
04.04.2020 12:00:00 17,0 7,0 28 15 N - 10
04.04.2020 11:00:00 16,1 6,4 29 16 N 1012,1 10
04.04.2020 10:00:00 15,0 7,0 26 14 N - 10
04.04.2020 09:00:00 14,0 8,0 24 13 N - 10
04.04.2020 08:00:00 12,1 8,5 16 9 N 1010,9 10
04.04.2020 07:00:00 12,0 8,0 16 9 NNE - 10
04.04.2020 06:00:00 12,0 9,0 16 9 NNE - 10
04.04.2020 05:00:00 11,8 9,0 18 10 N 1009,5 -
04.04.2020 04:00:00 - - - - - - -
04.04.2020 03:00:00 - - - - - - -
04.04.2020 02:00:00 11,7 9,7 22 12 N 1009,7 -
04.04.2020 01:00:00 - - - - - - -
04.04.2020 00:00:00 12,0 9,0 21 11 N - 10
03.04.2020 23:00:00 12,7 9,7 18 10 N 1009,4 10
03.04.2020 22:00:00 13,0 9,0 15 8 N - 10
03.04.2020 21:00:00 13,0 9,0 11 6 N - 10
03.04.2020 20:00:00 12,5 9,1 15 8 N 1008,6 10
03.04.2020 19:00:00 13,0 8,0 16 9 N - 10
03.04.2020 18:00:00 14,0 8,0 8 4 NNO - 10

tt = Temperatura
td = dewpoint
ff = velocità del vento
dd = direzione del vento
ppp = reduced air pressure
vv = visibility

Stazioni seguenti

WeatherPro
AMSI
MeteoEarth